STARLINK-35361

Last updated on Mon Oct 20 2025 00:02:05 GMT+0000 (Coordinated Universal Time)

1 65667U 25211R 25292.11293423 -.00123101 00000+0 -23137-2 0 9993 2 65667 97.6042 334.2765 0002562 9.3844 350.7453 15.48976635 5728
UTC large
Height (km)
Speed (km/s)
/
Latitude / Longitude
Inclination (degrees)
Orbital Period (minutes)
Azimuth
Elevation
Range (km)
Doppler Factor

Next 0 passes for location: London (51.5072 / 0.1276)

Sorry there are no passes over London.